Regional Weather Roundup
Issued by NWS Jackson, KY

Home | Current Version | Previous Version | Graphics & Text | Print | Product List | Glossary On
Versions: 1 2 3 4 5 6 7 8 9 10 11 12 13 14 15 16 17 18 19 20 21 22 23 24 25 26 27 28 29 30 31 32 33 34 35 36 37 38 39 40 41 42 43 44 45 46 47 48 49 50
000
ASUS43 KJKL 311010
RWRJKL

EAST KENTUCKY HOURLY WEATHER ROUNDUP
NATIONAL WEATHER SERVICE JACKSON KY
600 AM EDT MON AUG 31 2015

NOTE: "FAIR" INDICATES FEW OR NO CLOUDS BELOW 12,000 FEET WITH
NO SIGNIFICANT WEATHER AND/OR OBSTRUCTIONS TO VISIBILITY.

* THESE REPORTS ARE NOT UNDER NWS QUALITY CONTROL AND MAY NOT
  REPORT WEATHER SUCH AS PRECIPITATION AND FOG.

KYZ079-080-083-085-087-088-110-112-115-119-120-311100
...EASTERN KENTUCKY...

CITY           SKY/WX    TMP DP  RH WIND       PRES   REMARKS
JACKSON        FOG       67  65  93 CALM      30.12R VSB 1/4
LONDON         PTCLDY    68  62  81 CALM      30.12R
SOMERSET*      FOG       63  63 100 CALM      30.12R VSB 1/4
MONTICELLO*    PTCLDY    61  61 100 CALM      30.14R FOG
WILLIAMSBURG*  CLOUDY    63  63 100 CALM      30.12R
MIDDLESBORO*   CLEAR     63  62  98 CALM      30.14R
HAZARD APT*    CLOUDY    66  66 100 CALM      30.12  FOG
BLACK MTN*       N/A     61  57  88 S2          N/A
PIKEVILLE APT* CLOUDY    66  66 100 S3        30.13R FOG
BIG SANDY*     MOSUNNY   67  67  99 CALM      30.12S
MOREHEAD APT*  MOSUNNY   66  64  94 CALM      30.12S FOG
$$

KYZ035-036-041-042-044-050-067-078-099-311100
...CENTRAL KENTUCKY...

CITY           SKY/WX    TMP DP  RH WIND       PRES   REMARKS
MT STERLING*   CLEAR     63  63 100 CALM      30.12S FOG
FLEMING/MASON* CLEAR     64  64 100 S5        30.12R
DANVILLE*      CLEAR     61  59  94 CALM      30.12R
RICHMOND*      CLEAR     63  61  94 CALM      30.10S
LEXINGTON      CLOUDY    66  63  90 CALM      30.10S
FRANKFORT      PTCLDY    65  63  93 CALM      30.09R
$$

KYZ091>093-OHZ055-061-077-WVZ005-015-034-035-042-311100
...SOUTHERN OHIO/WEST VIRGINIA...

CITY           SKY/WX    TMP DP  RH WIND       PRES   REMARKS
COVINGTON      CLEAR     67  65  93 CALM      30.09R
COLUMBUS       PTCLDY    67  66  97 CALM      30.07S
DAYTON         CLEAR     66  66 100 SW7       30.09S FOG
WILMINGTON     CLEAR     64  62  93 S3        30.09R FOG
HUNTINGTON     PTCLDY    65  65 100 E3        30.09R
CHARLESTON     MOCLDY    67  65  93 CALM      30.10S FOG
PINEVILLE*     CLOUDY    66  66 100 MISG      30.19S FOG
BECKLEY        CLOUDY    65  59  81 S3        30.17S
BLUEFIELD      LGT RAIN  66  59  78 CALM      30.19S
$$

VAZ002-007-008-TNZ017-027-036-066-071-311100
...SOUTHWEST VIRGINIA/EAST TENNESSEE...

CITY           SKY/WX    TMP DP  RH WIND       PRES   REMARKS
WISE*          MOCLDY    64  63  94 S3        30.20R
JONESVILLE*    MOSUNNY   63  63 100 CALM      30.16S
ABINGDON*      DRIZZLE   66  63  92 CALM      30.18R
BRISTOL        CLOUDY    66  65  96 CALM      30.15S FOG
KNOXVILLE      PTCLDY    66  65  96 CALM      30.10R
OAK RIDGE      CLEAR     66  64  93 CALM      30.13R
CROSSVILLE     CLEAR     64  61  90 CALM      30.15R FOG
NASHVILLE      CLEAR     66  63  90 CALM      30.09R
$$

...KEY TO REMARKS...
VSB - VISIBILITY IN MILES
WCI - WIND CHILL INDEX
HX  - HEAT INDEX

$$



USA.gov is the U.S. government's official web portal to all federal, state and local government web resources and services.